Flag Weather past 2 weeks in Chatham-Kent, Ontario, Canada

Now
31 °F

Chilly.


Feels Like: 23 °F
Forecast: 30 / 35 °F
Wind: 9 mph from North

Location: Erieau

Current Time: Nov 26, 2014 at 6:54:52 AM

Latest Report: Nov 26, 2014 at 6:00 AM


Visibility: N/A

Pressure: 30.17 "Hg

Humidity: 72%

Dew point: 24 °F

Location of Chatham-KentLocation

Historic Weather in Chatham-Kent — Graph

°F

Chatham-Kent temperature yesterday

Maximum temperature yesterday: 38 °F (at 12:00 AM)
Minimum temperature yesterday: 31 °F (at 6:00 PM)
Average temperature yesterday: 35 °F

Past Weeks' High & Low Weather Summary

 TemperatureHumidityPressure
High55 °F (Nov 11, 10:00 AM)98% (Nov 17, 5:00 AM)30.49 "Hg (Nov 17, 5:00 AM)
Low15 °F (Nov 21, 6:00 AM)45% (Nov 14, 3:00 PM)29.13 "Hg (Nov 24, 4:00 AM)
Average34 °F75%30.00 "Hg
* Reported Nov 11 5:00 AM — Nov 26 5:00 AM, Chatham-Kent, Weather by CustomWeather, © 2014

Note: Actual official high and low records may vary slightly from our data, if they occured in-between our weather recording intervals... More about our weather records

Advertising

Chatham-Kent weather history for previous 24 hours

 ConditionsComfort  
Time TempWeatherWind HumidityBarometerVisibility
5:00 AM
Nov 26
31 °FChilly.6 mph71%30.20 "HgN/A
4:00 AM31 °FChilly.5 mph69%30.20 "HgN/A
3:00 AM33 °FChilly.3 mph63%30.21 "HgN/A
2:00 AM31 °FChilly.1 mph68%30.20 "HgN/A
1:00 AM31 °FChilly.3 mph70%30.22 "HgN/A
12:00 AM33 °FChilly.5 mph66%30.22 "HgN/A
11:00 PM
Nov 25
31 °FChilly.5 mph70%30.22 "HgN/A
10:00 PM32 °FChilly.6 mph66%30.22 "HgN/A
9:00 PM32 °FChilly.7 mph72%30.21 "HgN/A
8:00 PM32 °FChilly.8 mph70%30.19 "HgN/A
7:00 PM32 °FChilly.9 mph77%30.16 "HgN/A
6:00 PM31 °FChilly.9 mph79%30.13 "HgN/A
5:00 PM33 °FChilly.10 mph72%30.11 "HgN/A
4:00 PM34 °FChilly.15 mph76%30.08 "HgN/A
3:00 PM33 °FChilly.10 mph86%30.06 "HgN/A
2:00 PM33 °FChilly.14 mph78%30.04 "HgN/A
1:00 PM34 °FChilly.14 mph78%30.01 "HgN/A
12:00 PM34 °FChilly.16 mph82%30.01 "HgN/A
11:00 AM35 °FChilly.23 mph81%29.99 "HgN/A
10:00 AM35 °FChilly.26 mph75%29.95 "HgN/A
9:00 AM35 °FChilly.26 mph77%29.92 "HgN/A
8:00 AM36 °FChilly.24 mph76%29.90 "HgN/A
7:00 AM36 °FChilly.23 mph75%29.87 "HgN/A
6:00 AM37 °FChilly.24 mph77%29.84 "HgN/A
Weather by CustomWeather, © 2014

See weather overviewHow to use our weather pages